Regional Weather Roundup
Issued by NWS

Home | Current Version | Previous Version | Text Only | Print | Product List | Glossary Off
Versions: 1 2 3 4 5 6 7 8 9 10 11 12 13 14 15 16 17 18 19 20 21 22 23 24 25 26 27 28 29 30 31 32 33 34 35 36 37 38 39 40 41 42 43 44 45 46 47 48 49 50

000
ASUS43 KLOT 230210
RWRIL

ILLINOIS REGIONAL WEATHER ROUNDUP
NATIONAL WEATHER SERVICE CHICAGO/ROMEOVILLE IL
800 PM CST SAT NOV 22 2014

NOTE: "FAIR" INDICATES FEW OR NO CLOUDS BELOW 12,000 FEET WITH NO
SIGNIFICANT WEATHER AND/OR OBSTRUCTIONS TO VISIBILITY.

* THESE STATIONS ARE NOT UNDER NWS QUALITY CONTROL. THEY ALSO MAY NOT
  REPORT WEATHER SUCH AS PRECIPITATION OR FOG.

ILZ001-002-007-009-015-016-024-230300-
NORTHWEST ILLINOIS

CITY           SKY/WX    TMP DP  RH WIND       PRES   REMARKS
MOLINE         CLOUDY    55  48  77 S12       29.78F
STERLING*      CLOUDY    52  46  82 SW3       29.82S
SAVANNA*       CLOUDY    52  49  89 S10       29.79S
$$

ILZ003-004-008-010-011-017-018-230300-
NORTH CENTRAL ILLINOIS

CITY           SKY/WX    TMP DP  RH WIND       PRES   REMARKS
ROCKFORD       CLOUDY    47  44  90 S10       29.83F
FREEPORT*      MOCLDY    49  47  92 S16       29.81S
ROCHELLE*      CLOUDY    48  46  91 S13       29.84R
DE KALB*         N/A     46  44  90 S13       29.85R
PERU*          CLOUDY    53  46  76 S14       29.86R
$$

ILZ005-006-012>014-019>023-230300-
NORTHEAST ILLINOIS

CITY           SKY/WX    TMP DP  RH WIND       PRES   REMARKS
CHICAGO-OHARE  CLOUDY    52  45  77 S16       29.85F
CHICAGO-MIDWAY MOCLDY    53  46  77 S13G22    29.87S
AURORA         CLOUDY    52  44  74 S13       29.86S
LANSING*       CLOUDY    50  45  83 S13G18    29.90S
JOLIET*        PTCLDY    51  45  81 S9        29.88R
WAUKEGAN       CLOUDY    50  46  86 S14       29.83S
DUPAGE AIRPORT CLOUDY    50  44  80 S13       29.85S
KANKAKEE*      CLOUDY    51  46  83 SW17      29.92S
WHEELING       CLOUDY    52  45  77 S13G24    29.86F
MORRIS*        PTCLDY    50  47  87 S14G20    29.86F
ROMEOVILLE*    MOCLDY    51  45  80 SW13      29.87S
NORTHERLY ISL    N/A     53  44  71 W9          N/A
$$

LMZ740>746-230300-
SOUTHERN LAKE MICHIGAN

STATION/POSITION SKY/WX   TEMP    WIND        PRES    VSBY  WAVE
                          AIR SEA DIR/SP/G                  HT/PER
                          (F)     (DEG/KT/KT) (MB)    (MI)  (FT/S)
SOUTHERN BUOY              46 42  190/ 16/ 17 1010.9F         3/ 5
WAUKEGAN HARBOR            52     220/ 13/ 17   N/A
HARRISON CRIB              52     210/ 24/ 31   N/A
BURNHAM HARBOR             53     180/ 11/ 18   N/A
CALUMET HARBOR             52     190/ 12/ 17 1010.5F
MICHIGAN CITY              52     170/ 18/ 22   N/A
$$

ILZ025>027-034>036-040-047-049-050-058-095>099-230300-
WEST-CENTRAL ILLINOIS

CITY           SKY/WX    TMP DP  RH WIND       PRES   REMARKS
QUINCY         MOCLDY    53  48  83 S13       29.84S
GALESBURG*     PTCLDY    51  46  84 S10       29.82F
MACOMB*        PTCLDY    51  47  85 S16       29.85F
JACKSONVILLE*  CLOUDY    54  49  84 S8        29.88F
PITTSFIELD*    CLOUDY    54  49  83 S15       29.88S
$$

ILZ028>032-037-038-041>044-048-051>054-059>061-230300-
CENTRAL ILLINOIS

CITY           SKY/WX    TMP DP  RH WIND       PRES   REMARKS
PONTIAC        CLOUDY    53  49  86 S20       29.90S
BLOOMINGTON    CLOUDY    51  48  89 S17       29.91F
DECATUR        LGT RAIN  53  48  83 S21G32    29.94F
PEORIA         CLOUDY    54  47  77 S16G25    29.87F
LACON*         CLOUDY    54  46  74 S10G16    29.86S
LINCOLN*       CLOUDY    53  47  82 S13       29.91S
SPRINGFIELD    CLOUDY    53  47  79 S13       29.91F
TAYLORVILLE    RAIN      50  46  87 S14       29.94F
$$

ILZ033-039-045-046-055>057-062-063-230300-
EAST-CENTRAL ILLINOIS

CITY           SKY/WX    TMP DP  RH WIND       PRES   REMARKS
CHAMPAIGN      LGT RAIN  49  47  93 S9        29.96R FOG
DANVILLE*      RAIN      50  47  87 S16G23    29.94R
RANTOUL*       CLOUDY    53  47  80 S14       29.94S
MATTOON        LGT RAIN  54  43  66 S12       29.96S
PARIS*         CLOUDY    51  46  83 S8        29.98F
$$

ILZ079-100>102-230300-
SOUTHWEST ILLINOIS

CITY           SKY/WX    TMP DP  RH WIND       PRES   REMARKS
ALTON          CLOUDY    52  50  93 S12       29.92F
BELLEVILLE     LGT RAIN  53  53  99 S8        29.93F
CAHOKIA*       LGT RAIN  54  50  86 S7        29.92F
SPARTA*        DRIZZLE   54  47  78 S8        29.96F
$$

ILZ064>066-069>071-074>076-080>082-084>086-088>090-092>094-230300-
SOUTH-CENTRAL ILLINOIS

CITY           SKY/WX    TMP DP  RH WIND       PRES   REMARKS
CARBONDALE     CLOUDY    58  40  51 S12       30.00F
CAIRO*         CLOUDY    61  40  46 S9        30.02F
EFFINGHAM*     CLOUDY    54  42  64 S6        29.98S
MARION         CLOUDY    59  39  47 S14       30.01S
MT. VERNON     CLOUDY    54  43  66 S6        30.00F
CENTRALIA*     LGT RAIN  52  45  76 S6        29.97F
SALEM*         LGT RAIN  57  46  67 S7        29.98F
METROPOLIS*    CLOUDY    60  39  44 S7        30.03F
$$

ILZ067-068-072-073-078-083-087-091-230300-
SOUTHEAST ILLINOIS

CITY           SKY/WX    TMP DP  RH WIND       PRES   REMARKS
LAWRENCEVILLE  CLOUDY    52  42  69 S8        30.02S
FLORA*         DRIZZLE   54  43  66 S7        29.99F
FAIRFIELD*     LGT RAIN  54  42  66 S3        29.99F
HARRISBURG*    CLOUDY    60  37  42 S12       30.02S
ROBINSON*      CLOUDY    56  41  56 S8        30.01S
CARMI*         CLOUDY    56  43  62 S8        30.01S
$$

ABBREVIATIONS USED IN REMARKS
   TC - TEMPERATURE IN CELSIUS
  WCI - WIND CHILL INDEX
   HX - HEAT INDEX
  VSB - VISIBILITY
$$



USA.gov is the U.S. government's official web portal to all federal, state and local government web resources and services.